OpenBCM V1.07b12 (Linux)

Packet Radio Mailbox

DB0FHN

[JN59NK Nuernberg]

 Login: GUEST





  
CX2SA  > KEPS     17.09.04 04:33l 151 Lines 3944 Bytes #999 (0) @ AMSAT
BID : ORB04260.O
Read: GUEST
Subj: Orbital Elements  04260.OSCAR
Path: DB0FHN<DB0FOR<DB0MRW<OK0PPL<DB0RES<ON0AR<EB2BJX<ED1ZAC<CX2SA
Sent: 040917/0326Z @:CX2SA.LAV.URY.SA #:14917 [Minas] FBB7.00e $:ORB04260.O
From: CX2SA@CX2SA.LAV.URY.SA
To  : KEPS@AMSAT


HR AMSAT ORBITAL ELEMENTS FOR OSCAR SATELLITES
FROM WA5QGD FORT WORTH,TX September 16, 2004
SEND SUBSCRIBE/UNSUBSCRIBE TO majordomo@amsat.org ONLY
BID: ORB04260.O
TO ALL RADIO AMATEURS BT

Satellite: AO-07
Catalog number: 07530
Epoch time:      04259.69767175
Element set:    0326
Inclination:      101.6725 deg
RA of node:       304.9912 deg
Eccentricity:    0.0012152
Arg of perigee:   047.6767 deg
Mean anomaly:     312.5332 deg
Mean motion:   12.53568801 rev/day
Decay rate:       -2.9e-07 rev/day^2
Epoch rev:           36525
Checksum:              301

Satellite: AO-10
Catalog number: 14129
Epoch time:      04258.97384067
Element set:     103
Inclination:       26.6255 deg
RA of node:        71.5972 deg
Eccentricity:    0.6029559
Arg of perigee:   124.1478 deg
Mean anomaly:     308.3127 deg
Mean motion:    2.05870813 rev/day
Decay rate:      -3.24e-06 rev/day^2
Epoch rev:           15986
Checksum:              312

Satellite: UO-11
Catalog number: 14781
Epoch time:      04260.50627829
Element set:     582
Inclination:       98.1820 deg
RA of node:       246.8928 deg
Eccentricity:    0.0009882
Arg of perigee:   153.0026 deg
Mean anomaly:     207.1692 deg
Mean motion:   14.78996627 rev/day
Decay rate:       3.87e-06 rev/day^2
Epoch rev:           10134
Checksum:              323

Satellite: RS-10/11
Catalog number: 18129
Epoch time:      04260.18613243
Element set:     501
Inclination:       82.9190 deg
RA of node:        80.8113 deg
Eccentricity:    0.0013398
Arg of perigee:    67.2721 deg
Mean anomaly:     292.9848 deg
Mean motion:   13.72744340 rev/day
Decay rate:        3.6e-07 rev/day^2
Epoch rev:           86348
Checksum:              295

Satellite: FO-20
Catalog number: 20480
Epoch time:      04260.12570709
Element set:     710
Inclination:       99.0405 deg
RA of node:       120.4048 deg
Eccentricity:    0.0540627
Arg of perigee:   140.7911 deg
Mean anomaly:     223.3669 deg
Mean motion:   12.83341850 rev/day
Decay rate:        8.0e-08 rev/day^2
Epoch rev:           68434
Checksum:              271

Satellite: RS-12/13
Catalog number: 21089
Epoch time:      04259.94103431
Element set:    0738
Inclination:      082.9193 deg
RA of node:       114.4302 deg
Eccentricity:    0.0030133
Arg of perigee:   120.9280 deg
Mean anomaly:     239.4844 deg
Mean motion:   13.74440966 rev/day
Decay rate:        3.3e-07 rev/day^2
Epoch rev:           68282
Checksum:              290

Satellite: RS-15
Catalog number: 23439
Epoch time:      04260.87934549
Element set:     806
Inclination:       64.8152 deg
RA of node:       189.5445 deg
Eccentricity:    0.0155348
Arg of perigee:     4.8124 deg
Mean anomaly:     355.4243 deg
Mean motion:   11.27549814 rev/day
Decay rate:       -3.9e-07 rev/day^2
Epoch rev:           40057
Checksum:              317

Satellite: FO-29
Catalog number: 24278
Epoch time:      04259.83916952
Element set:     798
Inclination:       98.5835 deg
RA of node:       339.9283 deg
Eccentricity:    0.0350672
Arg of perigee:   166.7703 deg
Mean anomaly:     194.2930 deg
Mean motion:   13.52903346 rev/day
Decay rate:       -1.1e-07 rev/day^2
Epoch rev:           39909
Checksum:              357

Satellite: SO-33
Catalog number: 25509
Epoch time:      04259.99078966
Element set:     196
Inclination:       31.4322 deg
RA of node:       142.3265 deg
Eccentricity:    0.0356209
Arg of perigee:   289.6384 deg
Mean anomaly:      66.6167 deg
Mean motion:   14.27864298 rev/day
Decay rate:       1.98e-06 rev/day^2
Epoch rev:           30760
Checksum:              347

Satellite: AO-40
Catalog number: 26609
Epoch time:      04259.42580772
Element set:     435
Inclination:        9.7703 deg
RA of node:       343.0238 deg
Eccentricity:    0.7966699
Arg of perigee:   320.3876 deg
Mean anomaly:       3.3706 deg
Mean motion:    1.25585724 rev/day
Decay rate:      -1.10e-06 rev/day^2
Epoch rev:            1780
Checksum:              311



Read previous mail | Read next mail


 19.12.2025 21:20:34lGo back Go up